Regional Weather Roundup
Issued by NWS

Home | Current Version | Previous Version | Text Only | Print | Product List | Glossary On
Versions: 1 2 3 4 5 6 7 8 9 10 11 12 13 14 15 16 17 18 19 20 21 22 23 24 25 26 27
000
ASUS46 KSEW 270310
RWRWA

WASHINGTON REGIONAL WEATHER ROUNDUP
NATIONAL WEATHER SERVICE SEATTLE WA
800 PM PDT THU APR 26 2018

NOTE:"FAIR" INDICATES FEW OR NO CLOUDS BELOW 12,000 FEET WITH NO
SIGNIFICANT WEATHER AND/OR OBSTRUCTIONS TO VISIBILITY.

WAZ507-509-555>559-270400-
SEATTLE, TACOMA, EVERETT, AND VICINITY

CITY           SKY/WX    TMP DP  RH WIND       PRES   REMARKS
EVERETT        CLEAR     66  45  46 NW8       29.89F
BOEING FIELD   CLEAR     70  43  37 NW6       29.86R
RENTON         CLEAR     71  47  42 NW10      29.84S
SEATAC AIRPORT PTCLDY    72  44  36 N9        29.86S
JBLM-MCCHORD   CLEAR     74  48  39 NW7       29.86S
PUYALLUP       FAIR      70  45  40 CALM      29.87S
BREMERTON      CLEAR     70  43  37 NE6       29.87S
JBLM-FT LEWIS  CLEAR     67  56  67 W10       29.86R
TACOMA NARROWS CLEAR     70  49  47 W3        29.87R
$$

WAZ001-503-506-510-514-515-270400-
NORTH INTERIOR

CITY           SKY/WX    TMP DP  RH WIND       PRES   REMARKS
BELLINGHAM     CLEAR     64  50  60 CALM      29.88F
FRIDAY HARBOR  CLEAR     63  39  41 CALM      29.89F
EASTSOUND      CLEAR     59  45  58 CALM      29.89S
PORT ANGELES   CLEAR     54  47  77 W3        29.92F
EDIZ HOOK      FAIR      52  47  84 W15       29.91S
PORT TOWNSEND  FAIR      66  41  39 NW6       29.89S
NAS WHIDBEY    PTCLDY    59  45  59 W3        29.92F
ARLINGTON      CLEAR     66  45  46 NW10      29.87F
BURLINGTON     CLEAR     63  37  39 W9        29.88S
$$

WAZ020-022-039-040-504-511-512-270400-
SOUTHWEST INTERIOR

CITY           SKY/WX    TMP DP  RH WIND       PRES   REMARKS
SHELTON        CLEAR     57  49  74 SW14G26   29.88R
OLYMPIA        CLEAR     67  51  56 N7        29.86S
CHEHALIS       FAIR      63  52  67 VRB7G15   29.88R
KELSO          CLEAR     56  49  77 NW8       29.92R
VANCOUVER      PTCLDY    71  52  50 NW9       29.83R
SCAPPOOSE, OR  CLEAR     65  53  65 N9        29.82R
PORTLAND, OR   PTCLDY    71  51  49 NW12      29.84R
$$

WAZ021-516-517-270400-
WASHINGTON COAST

CITY           SKY/WX    TMP DP  RH WIND       PRES   REMARKS
FORKS          CLOUDY    51  48  89 SW5       29.95F
HOQUIAM        CLOUDY    53  49  86 SW9       29.96S
ASTORIA, OR    CLOUDY    52  48  86 SW5       29.96F
$$

WAZ019-023-024-040-567>569-270400-
CASCADE MOUNTAINS AND COLUMBIA GORGE

CITY           SKY/WX    TMP DP  RH WIND       PRES   REMARKS
STAMPEDE PASS  NOT AVBL
TROUTDALE, OR  PTCLDY    75  51  43 W10       29.82R
HOOD RIVER, OR CLEAR     73  37  27 CALM      29.88S
THE DALLES, OR CLEAR     75  42  30 SE5       29.86S
$$

WAZ026-027-041>044-520-521-270400-
EAST SLOPES

CITY           SKY/WX    TMP DP  RH WIND       PRES   REMARKS
OMAK           CLEAR     67  36  31 SW3       29.96F
WENATCHEE      CLEAR     71  38  29 NE3       29.94F
ELLENSBURG     CLEAR     67  39  35 E3        29.96F
YAKIMA         CLEAR     76  35  22 E3        29.93S
SUNNYSIDE ARPT CLEAR     66  40  39 N5        29.91F
YAKIMA TC      FAIR      69  31  24 E10       29.92F
$$

WAZ028-034-035-270400-
COLUMBIA BASIN

CITY           SKY/WX    TMP DP  RH WIND       PRES   REMARKS
EPHRATA        CLEAR     72  37  28 N6        29.94F
MOSES LAKE     CLEAR     70  40  33 N7        29.94F
PASCO          CLEAR     67  52  58 N5        29.88F
RICHLAND ARPT  CLEAR     73  42  32 NW8       29.88F
HERMISTON, OR  CLEAR     69  49  48 CALM      29.88F
$$

WAZ036>038-270400-
NORTHEAST WASHINGTON

CITY           SKY/WX    TMP DP  RH WIND       PRES   REMARKS
SPOKANE GEIGER PTCLDY    69  32  25 NW5       29.99F
SPOKANE FELTS  CLEAR     64  41  42 CALM      29.97F
FAIRCHILD AFB  CLEAR     67  31  26 N5        29.99F
COEURDALENE,ID CLEAR     64  40  41 NE5       29.99S
DEER PARK      CLEAR     60  41  49 CALM      29.99S
$$

WAZ029>033-270400-
SOUTHEAST WASHINGTON

CITY           SKY/WX    TMP DP  RH WIND       PRES   REMARKS
PULLMAN        CLEAR     66  35  31 CALM      30.00F
LEWISTON, ID   CLEAR     75  39  27 CALM      29.93S
WALLA WALLA    CLEAR     72  50  45 E3        29.89F
PENDLETON, OR  CLEAR     69  48  47 CALM      29.91F
$$




USA.gov is the U.S. government's official web portal to all federal, state and local government web resources and services.